Bay City, TX

2:25 AM CDT on May 25, 2017 (GMT -0500)
Bay City

Weather History for KBYY - January, 2014

Change the Weather History Date:

Thursday, January 23, 2014

  Actual Average (KLBX) Record (KLBX)
Temperature  
Mean Temperature 53 °F -  
Max Temperature 69 °F 61 °F 79 °F (2000)
Min Temperature 37 °F 45 °F 30 °F (2016)
Degree Days  
Heating Degree Days 12    
Growing Degree Days 3 (Base 50)    
Moisture  
Dew Point 50 °F    
Average Humidity 90    
Maximum Humidity 100    
Minimum Humidity 68    
Precipitation  
Precipitation 0.08 in - - ()
Sea Level Pressure  
Sea Level Pressure 30.24 in    
Wind  
Wind Speed 9 mph (NE)    
Max Wind Speed 28 mph    
Max Gust Speed 36 mph    
Visibility 9 miles    
Events Rain    
Averages and records for this station are not official NWS values.
T = Trace of Precipitation, MM = Missing Value Source: NWS Daily Summary

Daily Weather History Graph

Daily Weather History Graph

Search for Another Location

Airport or City:

Trip Planner

Search our weather history database for the weather conditions in past years. The results will help you decide how hot, cold, wet, or windy it might be!

Date:

Astronomy

Jan. 23, 2014 Rise Set
Actual Time 7:16 AM CST 5:54 PM CST
Civil Twilight 6:50 AM CST 6:20 PM CST
Nautical Twilight 6:22 AM CST 6:48 PM CST
Astronomical Twilight 5:53 AM CST 7:17 PM CST
Moon No Moon Rise 11:28 AM CST (1/23)
Length of Visible Light 11h 29m
Length of Day
10h 38m
Waning Gibbous, 55% of the Moon is Illuminated
Jan 23
Waning Gibbous
Jan 23
Last Quarter
Jan 30
New
Feb 6
First Quarter
Feb 14
Full

Hourly Weather History & Observations

Time (CST) Temp. Windchill Dew Point Humidity Pressure Visibility Wind Dir Wind Speed Gust Speed Precip Events Conditions
12:15 AM 53.2 °F - 51.3 °F 93% 30.07 in 10.0 mi East 5.8 mph - N/A   Mostly Cloudy
12:35 AM 53.6 °F - 51.8 °F 94% 30.06 in 10.0 mi East 5.8 mph - N/A   Mostly Cloudy
12:55 AM 53.6 °F - 51.8 °F 94% 30.06 in 10.0 mi East 5.8 mph - N/A   Mostly Cloudy
1:15 AM 53.4 °F - 51.8 °F 94% 30.06 in 10.0 mi East 4.6 mph - N/A   Scattered Clouds
1:35 AM 54.3 °F - 52.7 °F 94% 30.05 in 10.0 mi ESE 4.6 mph - N/A   Mostly Cloudy
1:55 AM 54.9 °F - 52.7 °F 92% 30.05 in 10.0 mi East 4.6 mph - N/A   Scattered Clouds
2:15 AM 54.1 °F - 52.5 °F 94% 30.05 in 10.0 mi East 4.6 mph - N/A   Clear
2:35 AM 54.5 °F - 52.9 °F 94% 30.06 in 10.0 mi ENE 4.6 mph - N/A   Scattered Clouds
2:55 AM 54.1 °F - 52.5 °F 94% 30.06 in 10.0 mi NE 5.8 mph - N/A   Mostly Cloudy
3:15 AM 53.8 °F - 52.5 °F 95% 30.06 in 10.0 mi ENE 3.5 mph - N/A   Mostly Cloudy
3:35 AM 53.6 °F - 52.5 °F 96% 30.06 in 10.0 mi East 3.5 mph - N/A   Scattered Clouds
3:55 AM 53.2 °F - 52.0 °F 95% 30.06 in 10.0 mi East 5.8 mph - N/A   Scattered Clouds
4:15 AM 54.1 °F - 52.9 °F 95% 30.06 in 10.0 mi East 4.6 mph - N/A   Scattered Clouds
4:35 AM 54.3 °F - 52.9 °F 95% 30.06 in 10.0 mi ENE 5.8 mph - N/A   Scattered Clouds
4:55 AM 54.3 °F - 53.2 °F 96% 30.07 in 10.0 mi ENE 5.8 mph - N/A   Scattered Clouds
5:15 AM 55.2 °F - 54.1 °F 96% 30.08 in 10.0 mi NE 4.6 mph - N/A   Scattered Clouds
5:35 AM 56.3 °F - 54.9 °F 95% 30.09 in 10.0 mi ENE 4.6 mph - N/A   Scattered Clouds
5:55 AM 55.9 °F - 54.7 °F 96% 30.10 in 10.0 mi NE 5.8 mph - N/A   Scattered Clouds
6:15 AM 56.1 °F - 54.9 °F 96% 30.11 in 10.0 mi NE 5.8 mph - N/A   Scattered Clouds
6:35 AM 56.8 °F - 55.4 °F 95% 30.11 in 10.0 mi ENE 5.8 mph - N/A   Mostly Cloudy
6:55 AM 57.0 °F - 55.8 °F 96% 30.12 in 10.0 mi NE 5.8 mph - N/A   Overcast
7:15 AM 57.4 °F - 55.8 °F 94% 30.14 in 10.0 mi ENE 5.8 mph - N/A   Scattered Clouds
7:35 AM 57.4 °F - 55.9 °F 95% 30.15 in 10.0 mi NE 5.8 mph - N/A   Clear
7:55 AM 58.1 °F - 56.5 °F 94% 30.16 in 10.0 mi NE 6.9 mph - N/A   Scattered Clouds
8:15 AM 59.0 °F - 57.0 °F 93% 30.16 in 10.0 mi ENE 6.9 mph - N/A   Scattered Clouds
8:35 AM 59.9 °F - 57.4 °F 91% 30.17 in 10.0 mi ENE 5.8 mph - N/A   Clear
8:55 AM 61.2 °F - 57.9 °F 89% 30.18 in 10.0 mi East 6.9 mph - N/A   Scattered Clouds
9:15 AM 62.4 °F - 58.3 °F 86% 30.19 in 10.0 mi East 6.9 mph - N/A   Scattered Clouds
9:35 AM 63.5 °F - 58.5 °F 84% 30.18 in 10.0 mi East 9.2 mph - N/A   Scattered Clouds
9:55 AM 64.9 °F - 58.8 °F 81% 30.19 in 10.0 mi ESE 10.4 mph - N/A   Scattered Clouds
10:15 AM 66.6 °F - 58.5 °F 75% 30.20 in 10.0 mi East 10.4 mph - N/A   Mostly Cloudy
10:35 AM 67.6 °F - 58.3 °F 72% 30.21 in 10.0 mi ESE 11.5 mph - N/A   Overcast
10:55 AM 69.1 °F - 58.3 °F 68% 30.20 in 10.0 mi ESE 13.8 mph 18.4 mph N/A   Overcast
11:15 AM 69.8 °F - 58.6 °F 68% 30.21 in 10.0 mi ESE 12.7 mph - N/A   Mostly Cloudy
11:35 AM 69.4 °F - 58.6 °F 68% 30.21 in 10.0 mi ESE 13.8 mph - N/A   Mostly Cloudy
11:55 AM 68.9 °F - 58.3 °F 69% 30.21 in 10.0 mi ESE 12.7 mph - N/A   Overcast
12:15 PM 68.9 °F - 58.1 °F 68% 30.21 in 10.0 mi ESE 12.7 mph 20.7 mph N/A   Overcast
12:35 PM 68.9 °F - 58.1 °F 68% 30.21 in 10.0 mi ESE 9.2 mph - N/A Rain Light Rain
12:55 PM 67.3 °F - 59.4 °F 76% 30.20 in 10.0 mi SE 10.4 mph - N/A Rain Light Rain
1:15 PM 66.0 °F - 59.7 °F 80% 30.19 in 10.0 mi ESE 6.9 mph - N/A   Light Drizzle
1:35 PM 65.7 °F - 59.7 °F 81% 30.19 in 10.0 mi ESE 5.8 mph - N/A   Drizzle
1:55 PM 65.7 °F - 60.1 °F 82% 30.20 in 10.0 mi East 4.6 mph - N/A Rain Light Rain
2:15 PM 60.8 °F - 59.9 °F 97% 30.21 in 7.0 mi NNW 17.3 mph - N/A Rain Light Rain
2:35 PM 55.4 °F - 57.0 °F 100% 30.22 in 5.0 mi North 15.0 mph 23.0 mph 0.02 in Rain Light Rain
2:55 PM 56.1 °F - 54.7 °F 95% 30.23 in 5.0 mi North 16.1 mph 21.9 mph 0.03 in Rain Rain
3:15 PM 54.7 °F - 53.4 °F 96% 30.24 in 5.0 mi North 13.8 mph 19.6 mph 0.01 in Rain Light Rain
3:35 PM 53.8 °F - 52.5 °F 95% 30.25 in 7.0 mi North 17.3 mph 24.2 mph 0.01 in Rain Light Rain
3:55 PM 52.3 °F - 50.7 °F 94% 30.27 in 7.0 mi North 20.7 mph 29.9 mph 0.02 in Rain Light Rain
4:15 PM 51.3 °F - 49.3 °F 93% 30.28 in 7.0 mi North 16.1 mph 28.8 mph N/A Rain Light Rain
4:35 PM 50.5 °F - 48.6 °F 93% 30.29 in 10.0 mi North 16.1 mph 26.5 mph N/A Rain Light Rain
4:55 PM 48.7 °F - 47.1 °F 94% 30.31 in 4.0 mi NNE 20.7 mph 32.2 mph 0.01 in Rain Light Rain
5:15 PM 47.1 °F - 45.5 °F 94% 30.32 in 7.0 mi North 21.9 mph 27.6 mph N/A   Light Drizzle
5:35 PM 45.7 °F 37.8 °F 43.9 °F 93% 30.34 in 7.0 mi North 20.7 mph 28.8 mph N/A   Light Drizzle
5:55 PM 44.4 °F 36.1 °F 42.8 °F 94% 30.36 in 7.0 mi North 20.7 mph 27.6 mph N/A Rain Light Rain
6:15 PM 43.3 °F 34.7 °F 41.7 °F 94% 30.38 in 10.0 mi North 20.7 mph 31.1 mph N/A   Light Drizzle
6:35 PM 42.4 °F 34.7 °F 40.6 °F 93% 30.39 in 7.0 mi North 16.1 mph 32.2 mph N/A Rain Light Rain
6:55 PM 41.7 °F 32.3 °F 39.9 °F 93% 30.41 in 5.0 mi North 21.9 mph 31.1 mph N/A Rain Light Rain
7:15 PM 41.2 °F 32.4 °F 39.6 °F 94% 30.43 in 5.0 mi North 18.4 mph 25.3 mph 0.01 in Rain Light Rain
7:35 PM 40.3 °F 29.3 °F 38.8 °F 95% 30.44 in 4.0 mi North 27.6 mph 35.7 mph 0.02 in Rain Light Rain
7:55 PM 39.2 °F 29.0 °F 37.6 °F 94% 30.45 in 4.0 mi NNE 21.9 mph 33.4 mph 0.02 in Rain Light Rain
8:15 PM 38.7 °F 28.3 °F 37.0 °F 94% 30.47 in 4.0 mi NNE 21.9 mph 31.1 mph N/A   Overcast
8:35 PM 38.3 °F 29.3 °F 36.7 °F 94% 30.48 in 7.0 mi North 16.1 mph 27.6 mph N/A   Overcast
8:55 PM 38.1 °F 28.1 °F 36.7 °F 95% 30.49 in 7.0 mi NNE 19.6 mph 27.6 mph N/A   Light Drizzle
9:15 PM 37.9 °F 27.9 °F 36.1 °F 93% 30.49 in 5.0 mi NNE 19.6 mph 29.9 mph N/A   Overcast
9:55 PM 37.8 °F 28.3 °F 36.3 °F 95% 30.52 in 10.0 mi NNE 17.3 mph 26.5 mph N/A   Overcast
10:15 PM 37.9 °F 28.9 °F 36.3 °F 94% 30.52 in 10.0 mi NNE 16.1 mph 32.2 mph N/A   Overcast
10:35 PM 38.1 °F 27.6 °F 36.1 °F 93% 30.52 in 10.0 mi NNE 21.9 mph 28.8 mph N/A   Overcast
10:55 PM 38.1 °F 28.1 °F 35.8 °F 91% 30.52 in 10.0 mi NNE 19.6 mph 26.5 mph N/A   Overcast
11:15 PM 37.9 °F 27.6 °F 35.6 °F 91% 30.53 in 10.0 mi NNE 20.7 mph 29.9 mph N/A   Overcast
11:35 PM 37.6 °F 29.6 °F 35.2 °F 91% 30.54 in 10.0 mi NNE 12.7 mph 27.6 mph N/A   Overcast
11:55 PM 37.4 °F 28.5 °F 34.9 °F 91% 30.55 in 10.0 mi NNE 15.0 mph 28.8 mph N/A   Overcast